Location: Tr�vern
(48.0333°N, 4.6000°W)
Time: 19:05:51
(UTC+00:00)

Cosmos 2082 Rocket - Pass Details

Date: 14 July 2020
Orbit: 834 x 853 km, 71.0° (Epoch: 11 August)

Event Time Altitude Azimuth Distance (km) Brightness Sun altitude
Exits shadow 02:22:45 18° 175° (S) 1,989 3.7 -15.5°
Maximum altitude 02:26:46 47° 109° (ESE) 1,125 2.9 -15.1°
Drops below altitude 10° 02:32:12 10° 38° (NE) 2,488 6.0 -14.7°
Sets 02:34:44 0° 32° (NNE) 3,426 7.4 -14.5°
